Andover, NJ

1:57 PM EDT on May 26, 2017 (GMT -0400)
Andover

Weather History for K12N - October, 2011

Change the Weather History Date:

Tuesday, October 11, 2011

  Actual Average (KFWN) Record (KFWN)
Temperature  
Mean Temperature 64 °F -  
Max Temperature 75 °F 64 °F 86 °F (1954)
Min Temperature 54 °F 36 °F 24 °F (1972)
Degree Days  
Heating Degree Days 2    
Growing Degree Days 14 (Base 50)    
Moisture  
Dew Point 54 °F    
Average Humidity 76    
Maximum Humidity 97    
Minimum Humidity 46    
Precipitation  
Precipitation 0.00 in - - ()
Sea Level Pressure  
Sea Level Pressure 30.18 in    
Wind  
Wind Speed 0 mph (North)    
Max Wind Speed 6 mph    
Max Gust Speed -    
Averages and records for this station are not official NWS values.
T = Trace of Precipitation, MM = Missing Value Source: NWS Daily Summary

Daily Weather History Graph

Daily Weather History Graph

Search for Another Location

Airport or City:

Trip Planner

Search our weather history database for the weather conditions in past years. The results will help you decide how hot, cold, wet, or windy it might be!

Date:

Astronomy

Oct. 11, 2011 Rise Set
Actual Time 7:05 AM EDT 6:25 PM EDT
Civil Twilight 6:38 AM EDT 6:52 PM EDT
Nautical Twilight 6:06 AM EDT 7:24 PM EDT
Astronomical Twilight 5:34 AM EDT 7:56 PM EDT
Moon 5:55 PM EDT (10/11) 6:41 AM EDT (10/11)
Length of Visible Light 12h 14m
Length of Day
11h 19m
Full, 100% of the Moon is Illuminated
Oct 11
Full
Oct 11
Full
Oct 19
Last Quarter
Oct 26
New
Nov 2
First Quarter

Hourly Weather History & Observations

Time (EDT) Temp. Dew Point Humidity Pressure Visibility Wind Dir Wind Speed Gust Speed Precip Events Conditions
12:54 AM 55.9 °F 54.0 °F 93% 30.17 in - Calm Calm - N/A   Unknown
1:54 AM 54.0 °F 53.1 °F 97% 30.17 in - Calm Calm - N/A   Unknown
2:54 AM 55.0 °F 53.1 °F 93% 30.16 in - Calm Calm - N/A   Unknown
3:54 AM 54.0 °F 53.1 °F 97% 30.16 in - Calm Calm - N/A   Unknown
4:54 AM 55.0 °F 54.0 °F 96% 30.17 in - Calm Calm - N/A   Unknown
5:54 AM 55.0 °F 53.1 °F 93% 30.19 in - Calm Calm - N/A   Unknown
6:54 AM 55.0 °F 54.0 °F 96% 30.21 in - Calm Calm - N/A   Unknown
7:54 AM 55.9 °F 54.0 °F 93% 30.22 in - Calm Calm - N/A   Unknown
8:54 AM 57.9 °F 55.0 °F 90% 30.24 in - Calm Calm - N/A   Unknown
9:54 AM 62.1 °F 55.9 °F 80% 30.23 in - Calm Calm - N/A   Unknown
10:54 AM 68.0 °F 57.0 °F 68% 30.22 in - Calm Calm - N/A   Unknown
11:54 AM 72.0 °F 50.0 °F 46% 30.20 in - Variable 5.8 mph - N/A   Unknown
12:54 PM 73.9 °F 53.1 °F 48% 30.18 in - Calm Calm - N/A   Unknown
1:54 PM 73.9 °F 54.0 °F 50% 30.17 in - Calm Calm - N/A   Unknown
2:54 PM 73.9 °F 54.0 °F 50% 30.15 in - Calm Calm - N/A   Unknown
3:54 PM 72.0 °F 54.0 °F 53% 30.16 in - Calm Calm - N/A   Unknown
4:54 PM 71.1 °F 55.0 °F 57% 30.14 in - Calm Calm - N/A   Unknown
5:54 PM 68.0 °F 57.0 °F 68% 30.14 in - Calm Calm - N/A   Unknown
6:54 PM 64.9 °F 50.0 °F 58% 30.15 in - Calm Calm - N/A   Unknown
7:54 PM 62.1 °F 53.1 °F 72% 30.15 in - Calm Calm - N/A   Unknown
8:54 PM 61.0 °F 53.1 °F 75% 30.16 in - Calm Calm - N/A   Unknown
9:54 PM 60.1 °F 53.1 °F 78% 30.17 in - Calm Calm - N/A   Unknown
10:54 PM 59.0 °F 54.0 °F 83% 30.17 in - Calm Calm - N/A   Unknown
11:54 PM 59.0 °F 55.0 °F 87% 30.16 in - Calm Calm - N/A   Unknown